Overview Statistics Trail Chart Weather Telemetry Raw packets
 

This is the latest recevied weather packets stored in our database for station/object 4S6DRJ-13. If no packets are shown the sender has not sent any weather packets the latest 10 day(s).

<< 477 478 479 480 481 482 483 >>
Time Temp. Humidity Pressure Rain* Wind** Luminosity Snow
1787725675 30° C 75% 1011.2 hPa 0 mm 1.34 m/s, 162° 574 W/m² -
1787725614 30° C 75% 1011.1 hPa 0 mm 2.24 m/s, 225° 689 W/m² -
1787725553 30° C 77% 1011.1 hPa 0 mm 0 m/s 694 W/m² -
1787725492 29.44° C 76% 1011.1 hPa 0 mm 2.68 m/s, 165° 692 W/m² -
1787725369 29.44° C 76% 1011.2 hPa 0 mm 1.34 m/s, 89° 672 W/m² -
1787725309 29.44° C 76% 1011.2 hPa 0 mm 2.24 m/s, 233° 636 W/m² -
1787725248 29.44° C 76% 1011.2 hPa 0 mm 1.34 m/s, 319° 617 W/m² -
1787725187 29.44° C 75% 1011.5 hPa 0 mm 1.79 m/s, 261° 571 W/m² -
1787725126 29.44° C 75% 1011.3 hPa 0 mm 1.79 m/s, 264° 495 W/m² -
1787725065 29.44° C 76% 1011.2 hPa 0 mm 1.34 m/s, 101° 540 W/m² -
1787725004 29.44° C 76% 1011.2 hPa 0 mm 2.68 m/s, 167° 587 W/m² -
1787724943 29.44° C 76% 1011.3 hPa 0 mm 0.89 m/s, 217° 613 W/m² -
1787724882 29.44° C 76% 1011.1 hPa 0 mm 1.34 m/s, 215° 603 W/m² -
1787724821 29.44° C 76% 1010.9 hPa 0 mm 0.89 m/s, 193° 575 W/m² -
1787724760 29.44° C 76% 1011.2 hPa 0 mm 0.89 m/s, 242° 451 W/m² -
1787724699 30° C 75% 1011.1 hPa 0 mm 2.68 m/s, 306° 385 W/m² -
1787724638 30° C 75% 1011.2 hPa 0 mm 1.34 m/s, 206° 421 W/m² -
1787724578 30° C 75% 1011.2 hPa 0 mm 3.13 m/s, 127° 508 W/m² -
1787724516 30° C 76% 1011.3 hPa 0 mm 0.89 m/s, 217° 544 W/m² -
1787724455 30° C 75% 1011.3 hPa 0 mm 0.45 m/s, 241° 569 W/m² -
1787724394 30° C 75% 1011.3 hPa 0 mm 1.34 m/s, 234° 575 W/m² -
1787724333 30° C 76% 1011.2 hPa 0 mm 1.34 m/s, 230° 564 W/m² -
1787724272 30° C 76% 1011.1 hPa 0 mm 1.79 m/s, 227° 576 W/m² -
1787724211 29.44° C 77% 1011.2 hPa 0 mm 0.89 m/s, 199° 566 W/m² -
1787724150 29.44° C 76% 1011.1 hPa 0 mm 0.89 m/s, 220° 549 W/m² -

* Rain latest hour (hover to see other rain measurements)
** Current wind speed in m/s (hover to see current wind gust speed)